Погода Верещагино

Погода Верещагино : погода сейчас, прогноз погоды и архив. Всё, что Вы хотите узнать о погоде Верещагино!

Поиск расширенной информации на нашем сайте:

Другие новости

Новости СМИ2

Главная страница сайта

Новости сайта

03.07.2017

Напоминаем, что на нашем специализированном сайте Метеоцентр.Азия вы можете получить высокодетализированные автоматические прогнозы погоды по пунктам России, СНГ и мира в авиационном формате (включающие направление и скорость ветра, видимость, явления погоды, количество и форму облачности, нижнюю и верхнюю границу облачности).

Рекомендуем: Онлайн курсы по программированию - радиатор панельный Buderus. Радиатор для систем отопл.

Погода Верещагино - сегодня

Время (UTC), дата Ветер
(°,м/с) 
Видим.   Явления Облачность Т
(°С)
Тd
(°С)
f(%) Тe
(°С)
Pmin
(гПа)
dP
(гПа)
Po
(мм)
O2
(г/м3)
Тmin Tmax R s Состояние
почвы
15 14.10.17 080 (В) 4000 м  дымка  8/8 2000 м средняя 
[As trans]
+8.8 +2.7 66 +9  1013.3  0.1  738  288    +12.1       
18 14.10.17 090 (В) 4000 м    10/10 2000 м 
[Ns]
+7.7 +2.6 70 +7  1012.8  -0.6  738  289           
21 14.10.17 080 (В) 20000 м    10/10 2000 м 
[Ns]
+6.8 +2.7 75 +7  1011.8  -1  737  289           
00 15.10.17 090 (В) 20000 м    10/10 2000 м 
[Ns]
+6.4 +2.6 77 +5  1010.6  -1.2  736  289           
03 15.10.17 080 (В) 20000 м    9/9 2000 м средняя 
[As trans]
+6 +2.1 76 +5  1009.3  -1.2  735  290  +6        сухая 
06 15.10.17 100 (В) 20000 м    10/10 2000 м 
[Ns]
+8.3 +2.2 65 +8  1007.5  -1.5  734  287           
09 15.10.17 110 (В) 3{10}  20000 м    10/10 2000 м 
[Ns]
+9.5 +3.1 64 +9  1006.2  -1.1  733  285           
12 15.10.17 140 (ЮВ) 3{10}  4000 м  слаб. морось{дождь}  10/10 600 м 
[Frnb|Ns]
+7.8 +5.6 86 +7  1005.5  -0.8  733  286           
15 15.10.17 130 (ЮВ) 4000 м  слаб. дождь  10/10 600 м 
[Frnb|Ns]
+7.1 +6.5 96 +6  1005.9  0.3  733  287    +9.9     
18 15.10.17 110 (В) 4000 м  слаб. дождь  10/10 600 м 
[Frnb]
+7.3 +6.6 95 +7  1006.1  0.3  733  287           
21 15.10.17 100 (В) 20000 м    9/9 2000 м средняя 
[As trans]
+7.4 +6.9 97 +7  1005.8  -0.4  733  286           
00 16.10.17 100 (В) 4000 м  дымка  9/9 2000 м средняя 
[As trans]
+7.3 +6.9 97 +7  1005.9  0.1  733  286           
03 16.10.17 090 (В) 4000 м    10/10 300 м 
[St]
+6.7 +6.3 97 +7  1006.9  0.9  734  287  +6.6    0.4    влажная 
06 16.10.17 070 (В) 4000 м  слаб. морось  10/10 300 м 
[St]
+7.4 +6.9 97 +7  1007.4  0.6  734  287           
09 16.10.17 060 (СВ) 4000 м  слаб. дождь{морось}  10/10 600 м 
[Frnb|Ns]
+7.2 +6.6 96 +6  1007.5  0.1  734  287           
12 16.10.17 080 (В) 4000 м  слаб. дождь{морось}  10/10 600 м 
[Frnb|Ns]
+8.1 +7.7 97 +7  1007.5  0.1  734  286           
15 16.10.17 090 (В) 4{10}  4000 м  слаб. дождь  10/10 600 м 
[Frnb|Ns]
+7.9 +7.3 96 +7  1008.8  1.2  735  287    +8.6     
18 16.10.17 080 (В) 4000 м  слаб. дождь  10/10 600 м 
[Frnb|Ns]
+7.1 +6.7 97 +6  1009.5  0.6  735  288           
21 16.10.17 080 (В) 20000 м    10/10 1000 м 
[Sc]
+6.4 +5.7 95 +5  1009  -0.6  735  288           
00 17.10.17 090 (В) 20000 м    10/10 1000 м 
[Sc]
+5.6 +4.8 95 +5  1007.9  -1.1  734  289           
03 17.10.17 090 (В) 20000 м    9/9 2000 м средняя 
[As trans]
+5.6 +4.5 93 +5  1007.2  -0.8  734  289  +5.6    0.8    влажная 
06 17.10.17 110 (В) 20000 м    10/10 2000 м 
[Ns]
+7.6 +5.5 87 +7  1006  -0.9  733  286           
09 17.10.17 150 (ЮВ) 20000 м    10/10 1000 м 
[Sc]
+9.2 +6.3 82 +8  1003.5  -2.3  731  284           
12 17.10.17 150 (ЮВ) 20000 м    10/10 600 м 
[Frnb]
+9 +6.8 86 +8  1002.3  -1.2  730  284           
15 17.10.17 170 (Ю) 20000 м    10/10 1000 м 
[Sc]
+8.3 +6.9 91 +8  1001.2  -1.1  730  284    +9.4       
Время (UTC), дата Ветер
(°,м/с) 
Видим.   Явления Облачность Т
(°С)
Тd
(°С)
f(%) Тe
(°С)
Pmin
(гПа)
dP
(гПа)
Po
(мм)
O2
(г/м3)
Тmin Tmax R s Состояние
почвы

Для получения пояснительной информации подведите курсор к названию столбца.

ПОГОДА Верещагино - архив

Всё, что Вы хотите узнать о погоде Верещагино - удобно и подробно!

Выберите нужную дату (начиная с 1 января 2015* года) и нажмите кнопку "Найти".
Будут отображены архивные сводки погоды по пункту Верещагино, начиная с указанной даты.


Отображать данные в формате CSV (для использования в таблицах Excel)


Внимание! Наш архив погоды предназначен исключительно для личного некоммерческого использования в познавательных целях. Если Вам необходимы официальные справки о состоянии погоды (для производственных, юридических, коммерческих и т.п. целей), обращайтесь в органы Росгидромета.

*Примечание: данная дата относится к архиву по метеостанциям СССР (Россия, СНГ, Балтия).
Архив по метеостанциям Зарубежной Европы и Азии (кроме Китая) хранится 10 дней, по другим регионам земного шара (Китай, Африка, Америка, Австралия, Океания) - 1 день.

Верещагино - район местоположения метеостанции


Название, широта, долгота, высота метеостанции:
Верещагино 58.1°ш. 54.7°д. 226 м над ур. моря [Российская Федерация]

Дополнительная информация

В oтличие oт бoльшинства пoгoдных сайтoв мы публикуем пoдрoбную метеoинфoрмацию в детальнoм прoфессиoнальнoм фoрмате.

Характеристики температуры и влажнoсти вoздуха измеряются на высoте 2 м в тени вдали oт зданий и деревьев.
Скoрoсть ветра измеряется на высoте 10 м (на урoвне рoста челoвека скoрoсть ветра ниже в 1.5-2 раза). Если метеoстанция нахoдится в гoрoде или в лесу, тo скoрoсть ветра занижена на 2-4 м/с пo сравнению с oткрытым местoм. Скoрoсть ветра над акватoриями крупных рек и oзёр, а также на вершинах хoлмoв на 2-5 м/с выше, чем в oбычных услoвиях.
Атмoсфернoе давление в разных тoчках местнoсти мoжет значительнo oтличаться oт давления на метеoстанции, в зависимoсти oт услoвий рельефа (при пoдъёме на 10 м давление пoнижается примернo на 1 мм рт.ст.).